Location: Unspecified
(0.0000°N, 0.0000°E)
Time: 20:04:01
(UTC+02:00)

Ariane H10 - Visible Passes

Search period start: 05 May 2016 00:00
Search period end: 15 May 2016 00:00
Orbit: 432 x 35039 km, 4.1° (Epoch: 03 May)

Date Brightness Start Highest point End Pass type
(mag) Time Alt. Az. Time Alt. Az. Time Alt. Az.
05 May 5.8 13:00:38 10° W 20:54:46 67° E 22:30:42 32° E visible
06 May 10.7 21:03:53 10° W 22:21:39 22° W 00:53:34 10° W visible
07 May 2.7 06:07:13 49° WNW 06:08:52 75° N 06:12:10 10° E visible
07 May 7.5 17:01:06 10° W 18:49:34 79° W 02:17:18 57° WNW visible
08 May 6.2 13:29:59 10° W 21:25:26 77° ENE 23:00:04 41° E visible
09 May 10.9 22:04:57 10° W 22:50:15 13° W 23:52:50 10° W visible
10 May 2.1 06:35:42 27° W 06:38:34 79° N 06:41:24 10° E visible
10 May 7.6 17:32:37 10° W 19:20:19 69° W 02:46:35 45° W visible
11 May 6.6 13:59:27 10° W 21:46:05 87° NNE 23:29:19 51° E visible
13 May 1.6 07:04:10 13° W 07:08:09 87° NNE 07:10:48 10° E visible
13 May 7.7 18:05:01 10° W 19:51:15 58° W 03:15:46 34° W visible
